F4ECA-13 Weather Reports


time (UTC)temp
C
wind
direction
speed
KPH
gust
KPH
rain 1hr
cm
rain 24hr
cm
rain mn
cm
humidity
%
barometer
mb
20260505091525 18 164 3.2 4.8 0.00 1.47 19.46 69 1007.0
20260505090550 17 180 4.8 4.8 0.00 1.47 19.46 70 1005.9
20260505085525 17 180 3.2 3.2 0.00 1.47 19.46 71 1005.9
20260505084524 16 180 3.2 4.8 0.00 1.47 19.46 74 1005.9
20260505083529 16 180 4.8 6.4 0.00 1.47 19.46 75 1005.9
20260505082524 16 225 3.2 4.8 0.00 1.47 19.46 76 1005.9
20260505081604 15 225 3.2 4.8 0.00 24.66 12.95 79 1005.9
20260505080525 14 225 3.2 4.8 0.00 1.47 12.95 79 1007.0
20260505075544 14 203 4.8 6.4 0.00 1.47 12.95 79 1007.0
20260505074524 14 203 6.4 6.4 0.00 1.47 12.95 79 1007.0
20260505073524 14 203 3.2 6.4 0.00 1.47 12.95 78 1005.9
20260505072545 14 203 8.0 9.7 0.00 1.47 12.95 78 1007.0
20260505071519 14 191 6.4 8.0 0.00 1.47 12.95 76 1007.0
20260505070517 -17 211 4.8 4.8 0.00 1.47 12.95 1007.0
20260505065545 15 203 8.0 9.7 0.00 1.47 12.95 74 1005.9
20260505064528 16 211 6.4 8.0 0.00 3.45 12.95 72 1005.9
20260505063524 16 180 3.2 4.8 0.00 1.47 12.95 74 1005.9
20260505062517 15 180 3.2 6.4 0.00 1.47 12.95 74 1005.9
20260505061529 16 180 4.8 6.4 0.00 1.47 12.95 75 1005.9
20260505060524 15 90 3.2 4.8 0.00 1.47 12.95 77 1005.9
20260505055517 13 90 6.4 8.0 0.00 1.47 12.95 76 1005.9
20260505054528 13 90 6.4 8.0 0.00 1.47 12.95 76 1005.9
20260505053528 13 90 6.4 8.0 0.00 1.47 12.95 76 1005.9
20260505052525 13 90 3.2 4.8 0.00 1.47 12.95 77 1005.9
20260505051518 13 90 3.2 4.8 0.00 1.47 12.95 77 1005.9
20260505050542 13 90 6.4 6.4 0.00 1.47 12.95 77 1005.9
20260505041529 13 0.0 0.0 0.00 1.47 12.95 77 1005.9
20260505040527 13 0.0 0.0 0.00 1.57 12.95 77 1005.9
20260505035525 13 0.0 0.0 0.00 1.57 12.95 76 1005.9
20260505034608 13 0.0 0.0 0.00 1.57 12.95 76 1005.9
20260505033524 13 0.0 0.0 0.00 1.57 12.95 76 1005.9
20260505032525 13 0.0 0.0 0.00 1.57 12.95 76 1007.0
20260505031524 13 0.0 0.0 0.00 1.57 12.95 75 1007.0
20260505030524 13 0.0 0.0 0.10 1.57 12.95 75 1007.0
20260505025519 13 90 4.8 4.8 0.10 1.57 12.95 75 1007.0
20260505024524 13 0.0 0.0 0.10 1.57 12.95 75 1007.0
20260505023524 13 0.0 0.0 6.43 4.47 12.85 75 1007.0
20260505022524 13 0.0 0.0 0.00 1.47 12.85 75 1007.0
20260505021527 13 0.0 0.0 0.00 1.47 12.85 75 1007.0
20260505020604 13 0.0 0.0 0.00 1.70 12.85 75 1007.0
20260505015525 -17 90 4.8 4.8 0.00 1.70 12.85 1007.0
20260505014524 13 0.0 0.0 4.34 16.43 6.43 74 1007.0
20260505013525 13 0.0 0.0 0.00 1.70 6.43 74 1007.0
20260505012524 13 90 4.8 4.8 0.00 1.70 6.43 74 1007.0
20260505011551 13 0.0 0.0 0.00 1.70 6.43 74 1007.0
20260505010524 13 90 6.4 6.4 0.33 1.70 6.43 74 1007.0
20260505005524 13 90 3.2 3.2 0.33 1.70 6.43 74 1007.0
20260505004546 13 0.0 0.0 0.20 1.57 6.30 74 1007.0
20260505003544 13 90 3.2 4.8 0.10 1.47 6.22 74 1007.0
20260505002545 13 90 6.4 6.4 0.10 1.47 6.22 74 1008.0
20260505001524 13 90 3.2 3.2 0.10 1.47 6.22 74 1008.0
20260505000525 14 0.0 0.0 0.20 1.37 6.10 74 1008.0
20260504235527 14 0.0 0.0 0.10 1.27 5.99 74 1008.0
20260504234528 14 0.0 0.0 0.10 1.27 5.99 74 1008.0
20260504233524 14 0.0 0.0 0.00 1.17 5.89 74 1008.0
20260504232526 14 0.0 0.0 0.20 4.27 5.89 75 1008.0
20260504231524 14 0.0 0.0 0.00 1.17 5.89 75 1008.0
20260504230524 14 0.0 0.0 0.10 1.07 5.79 75 1008.0
20260504225547 14 0.0 0.0 0.10 1.07 5.79 75 1008.0
20260504224524 14 0.0 0.0 0.10 1.07 5.79 76 1008.0
20260504223525 14 0.0 0.0 0.10 1.07 5.79 76 1008.0
20260504222524 14 0.0 0.0 0.00 0.94 5.69 76 1008.0
20260504221547 14 0.0 0.0 0.10 0.94 5.69 76 1008.0
20260504220524 14 90 3.2 3.2 0.00 0.86 5.59 77 1008.0
20260504215518 14 90 4.8 6.4 22.10 14.30 3.68 77 1008.0
20260504214524 14 90 4.8 4.8 0.00 0.86 3.68 77 1008.0
20260504213525 14 90 4.8 6.4 0.00 0.86 3.68 77 1009.1
20260504212521 14 90 3.2 3.2 0.00 0.86 3.68 77 1008.0
20260504211529 14 90 3.2 4.8 0.00 0.86 3.12 78 1008.0
20260504210525 14 90 1.6 3.2 0.00 0.86 3.12 78 1009.1
20260504205520 14 0.0 0.0 0.00 0.86 3.12 79 1009.1
20260504204553 14 0.0 0.0 0.00 0.86 3.12 79 1009.1
20260504203523 -17 90 1.6 3.2 0.00 0.86 3.12 1008.0
20260504202520 14 90 4.8 4.8 0.00 0.86 3.12 79 1008.0
20260504201550 14 90 1.6 3.2 0.00 0.86 3.12 80 1008.0
20260504200524 14 90 0.0 1.6 0.00 0.86 3.12 80 1008.0
20260504195519 14 90 1.6 3.2 0.00 0.86 3.12 80 1008.0
20260504194516 -17 90 3.2 6.4 0.00 0.86 3.12 1008.0
20260504193528 14 90 3.2 4.8 0.00 0.86 3.12 81 1008.0
20260504192515 14 90 3.2 4.8 0.00 0.86 3.12 82 1008.0
20260504191548 14 90 4.8 6.4 0.00 0.86 3.12 82 1008.0
20260504190607 13 90 6.4 8.0 0.00 0.86 3.12 82 1008.0
20260504185525 13 90 4.8 6.4 0.00 0.86 3.12 83 1009.1
20260504184544 13 90 6.4 9.7 5.59 3.58 3.12 83 1009.1
20260504183524 13 90 6.4 9.7 0.00 0.86 3.12 83 1008.0
20260504182521 13 90 4.8 4.8 0.00 0.86 3.12 84 1009.1
20260504181524 13 90 3.2 3.2 0.00 0.86 3.12 84 1009.1
20260504180524 13 90 4.8 6.4 0.00 0.86 3.12 82 1009.1
20260504175548 13 90 6.4 6.4 0.00 0.86 3.12 83 1009.1
20260504174525 13 90 4.8 6.4 0.00 0.86 2.57 84 1009.1
20260504173528 13 90 6.4 8.0 0.00 0.86 2.57 84 1009.1
20260504172526 13 90 6.4 6.4 0.00 0.86 2.57 86 1009.1
20260504171547 13 90 4.8 6.4 0.00 0.86 2.57 86 1009.1
20260504170525 13 135 6.4 6.4 0.00 3.02 2.57 85 1009.1